Easton, MD

8:23 PM EST on February 05, 2016 (GMT -0500)
Easton / Newnam

Weather History for KESN - August, 2014

Change the Weather History Date:

Thursday, August 14, 2014

  Actual Average Record
Temperature  
Mean Temperature 72 °F -  
Max Temperature 82 °F 87 °F 93 °F (1959)
Min Temperature 62 °F 66 °F 52 °F (1954)
Cooling Degree Days 7    
Growing Degree Days 22 (Base 50)    
Moisture  
Dew Point 58 °F    
Average Humidity 65    
Maximum Humidity 83    
Minimum Humidity 39    
Precipitation  
Precipitation 0.00 in - - ()
Sea Level Pressure  
Sea Level Pressure 29.94 in    
Wind  
Wind Speed 6 mph (WNW)    
Max Wind Speed 16 mph    
Max Gust Speed 21 mph    
Visibility 10 miles    
Events      
Averages and records for this station are not official NWS values.
T = Trace of Precipitation, MM = Missing Value Source: NWS Daily Summary

Daily Weather History Graph

Daily Weather History Graph

Search for Another Location

Airport or City:

Trip Planner

Search our weather history database for the weather conditions in past years. The results will help you decide how hot, cold, wet, or windy it might be!

Date:

Astronomy

Aug. 14, 2014 Rise Set
Actual Time 6:17 AM EDT 8:00 PM EDT
Civil Twilight 5:48 AM EDT 8:28 PM EDT
Nautical Twilight 5:14 AM EDT 9:02 PM EDT
Astronomical Twilight 4:37 AM EDT 9:39 PM EDT
Moon 10:25 PM EDT (8/14) 10:48 AM EDT (8/14)
Length of Visible Light 14h 39m
Length of Day
13h 43m
Waning Gibbous, 79% of the Moon is Illuminated
Aug 14
Waning Gibbous
Aug 17
Last Quarter
Aug 25
New
Sep 2
First Quarter
Sep 8
Full

Hourly Weather History & Observations

Time (EDT) Temp. Heat Index Dew Point Humidity Pressure Visibility Wind Dir Wind Speed Gust Speed Precip Events Conditions
12:27 AM 72.1 °F - 59.2 °F 64% 29.93 in 10.0 mi NNW 11.5 mph 19.6 mph N/A   Clear
12:47 AM 71.6 °F - 59.0 °F 64% 29.93 in 10.0 mi NNW 8.1 mph - N/A   Clear
1:07 AM 71.1 °F - 59.2 °F 66% 29.93 in 10.0 mi NW 9.2 mph - N/A   Clear
1:27 AM 70.9 °F - 59.4 °F 67% 29.93 in 10.0 mi NW 4.6 mph - N/A   Clear
1:47 AM 69.3 °F - 59.4 °F 71% 29.93 in 10.0 mi NNW 4.6 mph - N/A   Clear
2:07 AM 68.2 °F - 59.7 °F 74% 29.93 in 10.0 mi NW 4.6 mph - N/A   Clear
2:28 AM 68.4 °F - 59.5 °F 73% 29.93 in 10.0 mi NW 5.8 mph - N/A   Clear
2:48 AM 68.9 °F - 59.0 °F 71% 29.93 in 10.0 mi NNW 5.8 mph - N/A   Clear
3:08 AM 68.0 °F - 58.1 °F 71% 29.93 in 10.0 mi NNW 6.9 mph - N/A   Clear
3:28 AM 68.4 °F - 58.1 °F 70% 29.93 in 10.0 mi NNW 5.8 mph - N/A   Clear
3:48 AM 67.6 °F - 57.7 °F 71% 29.94 in 10.0 mi NW 4.6 mph - N/A   Clear
4:08 AM 67.1 °F - 57.6 °F 71% 29.94 in 10.0 mi Calm Calm - N/A   Clear
4:28 AM 66.7 °F - 57.4 °F 72% 29.94 in 10.0 mi Calm Calm - N/A   Clear
4:48 AM 65.8 °F - 57.7 °F 75% 29.94 in 10.0 mi Calm Calm - N/A   Clear
5:08 AM 65.5 °F - 58.1 °F 77% 29.95 in 10.0 mi Calm Calm - N/A   Clear
5:28 AM 65.3 °F - 57.6 °F 76% 29.95 in 10.0 mi Calm Calm - N/A   Clear
5:48 AM 64.0 °F - 57.2 °F 78% 29.95 in 10.0 mi Calm Calm - N/A   Clear
5:50 AM 64.4 °F - 57.2 °F 77% 29.95 in 10.0 mi Calm Calm - N/A   Clear
6:08 AM 63.7 °F - 58.1 °F 82% 29.95 in 10.0 mi Calm Calm - N/A   Clear
6:26 AM 63.1 °F - 57.9 °F 83% 29.95 in 10.0 mi Calm Calm - N/A   Clear
6:50 AM 62.6 °F - 57.2 °F 82% 29.97 in 10.0 mi Calm Calm - N/A   Clear
7:48 AM 68.0 °F - 59.0 °F 73% 29.98 in 10.0 mi Calm Calm - N/A   Clear
8:55 AM 71.6 °F - 57.2 °F 60% 29.99 in 10.0 mi NW 6.9 mph - N/A   Clear
9:45 AM 75.2 °F - 55.4 °F 50% 29.99 in 10.0 mi NW 6.9 mph - N/A   Clear
10:50 AM 75.2 °F - 51.8 °F 44% 30.00 in 10.0 mi West 4.6 mph - N/A   Scattered Clouds
11:50 AM 77.0 °F - 51.8 °F 41% 29.99 in 10.0 mi West 6.9 mph - N/A   Mostly Cloudy
12:50 PM 77.0 °F - 50.0 °F 39% 29.98 in 10.0 mi West 9.2 mph - N/A   Overcast
1:47 PM 77.0 °F - 53.6 °F 44% 29.96 in 10.0 mi WSW 6.9 mph - N/A   Mostly Cloudy
2:45 PM 80.6 °F 80.5 °F 55.4 °F 42% 29.94 in 10.0 mi SW 16.1 mph 20.7 mph N/A   Scattered Clouds
3:45 PM 80.6 °F 80.8 °F 57.2 °F 45% 29.92 in 10.0 mi SW 10.4 mph - N/A   Mostly Cloudy
4:45 PM 82.4 °F 82.0 °F 57.2 °F 42% 29.91 in 10.0 mi SSW 11.5 mph 16.1 mph N/A   Mostly Cloudy
5:45 PM 80.6 °F 81.1 °F 59.0 °F 48% 29.90 in 10.0 mi South 9.2 mph - N/A   Scattered Clouds
6:55 PM 78.8 °F - 62.6 °F 57% 29.90 in 10.0 mi SSW 10.4 mph - N/A   Scattered Clouds
7:55 PM 75.2 °F - 62.6 °F 65% 29.90 in 10.0 mi South 5.8 mph - N/A   Scattered Clouds
8:45 PM 73.4 °F - 62.6 °F 69% 29.91 in 10.0 mi Calm Calm - N/A   Clear
10:50 PM 70.7 °F - 64.0 °F 79% 29.95 in 10.0 mi Calm Calm - N/A   Clear
11:10 PM 70.7 °F - 62.1 °F 74% 29.95 in 10.0 mi Calm Calm - N/A   Clear
11:30 PM 70.5 °F - 60.1 °F 69% 29.96 in 10.0 mi Calm Calm - N/A   Clear
11:50 PM 68.0 °F - 59.4 °F 74% 29.96 in 10.0 mi Calm Calm - N/A   Clear